Tallahassee, FL

9:59 PM EDT on April 30, 2017 (GMT -0400)
Tallahassee Regional

Weather History for KTLH - June, 2012

Change the Weather History Date:

Sunday, June 24, 2012

  Actual Average Record
Temperature  
Mean Temperature 76 °F 81 °F  
Max Temperature 78 °F 92 °F 104 °F (1914)
Min Temperature 73 °F 71 °F 60 °F (1966)
Degree Days  
Heating Degree Days 0    
Month to date heating degree days 0  
Since 1 June heating degree days 0  
Since 1 July heating degree days 1055  
Cooling Degree Days 11    
Month to date cooling degree days 368  
Year to date cooling degree days 1145  
Since 1 June cooling degree days 368  
Growing Degree Days 26 (Base 50)    
Moisture  
Dew Point 71 °F    
Average Humidity 87    
Maximum Humidity 94    
Minimum Humidity 79    
Precipitation  
Precipitation 1.86 in 0.28 in 1.95 in (1941)
Month to date precipitation 6.16 6.12  
Year to date precipitation 23.10 27.78  
Sea Level Pressure  
Sea Level Pressure 29.80 in    
Wind  
Wind Speed 18 mph (East)    
Max Wind Speed 28 mph    
Max Gust Speed 37 mph    
Visibility 7 miles    
Events Rain    
T = Trace of Precipitation, MM = Missing Value Source: NWS Daily Summary

Daily Weather History Graph

Daily Weather History Graph

Search for Another Location

Airport or City:

Trip Planner

Search our weather history database for the weather conditions in past years. The results will help you decide how hot, cold, wet, or windy it might be!

Date:

Astronomy

Jun. 24, 2012 Rise Set
Actual Time 6:36 AM EDT 8:43 PM EDT
Civil Twilight 6:09 AM EDT 9:10 PM EDT
Nautical Twilight 5:35 AM EDT 9:44 PM EDT
Astronomical Twilight 4:59 AM EDT 10:20 PM EDT
Moon 11:20 AM EDT (6/24) No Moon Set
Length of Visible Light 15h 01m
Length of Day
14h 06m
Waxing Crescent, 24% of the Moon is Illuminated
Jun 24
Waxing Crescent
Jun 26
First Quarter
Jul 3
Full
Jul 10
Last Quarter
Jul 19
New

Hourly Weather History & Observations

Time (EDT) Temp. Dew Point Humidity Pressure Visibility Wind Dir Wind Speed Gust Speed Precip Events Conditions
12:53 AM 78.1 °F 72.0 °F 81% 29.93 in 10.0 mi East 9.2 mph - N/A   Clear
1:53 AM 77.0 °F 72.0 °F 84% 29.92 in 10.0 mi East 8.1 mph - N/A   Clear
2:53 AM 77.0 °F 71.1 °F 82% 29.89 in 10.0 mi East 9.2 mph - N/A   Clear
3:53 AM 77.0 °F 71.1 °F 82% 29.88 in 10.0 mi East 13.8 mph - N/A   Clear
4:53 AM 78.1 °F 71.1 °F 79% 29.85 in 10.0 mi East 16.1 mph 21.9 mph N/A   Clear
5:53 AM 78.1 °F 72.0 °F 81% 29.84 in 10.0 mi East 15.0 mph - N/A   Partly Cloudy
6:53 AM 78.1 °F 72.0 °F 81% 29.85 in 10.0 mi East 12.7 mph - N/A   Overcast
7:16 AM 78.8 °F 71.6 °F 78% 29.84 in 10.0 mi East 13.8 mph - N/A   Overcast
7:53 AM 78.1 °F 72.0 °F 81% 29.85 in 10.0 mi East 16.1 mph 23.0 mph 0.00 in Rain Light Rain
8:09 AM 77.0 °F 73.4 °F 89% 29.86 in 10.0 mi East 12.7 mph - 0.00 in Rain Light Rain
8:53 AM 75.9 °F 73.0 °F 91% 29.88 in 3.0 mi ESE 11.5 mph - 0.12 in Rain Heavy Rain
9:02 AM 75.2 °F 73.4 °F 94% 29.88 in 3.0 mi East 16.1 mph 21.9 mph 0.05 in Rain Heavy Rain
9:12 AM 75.2 °F 71.6 °F 89% 29.88 in 4.0 mi East 16.1 mph 24.2 mph 0.09 in Rain Heavy Rain
9:53 AM 75.0 °F 71.1 °F 87% 29.88 in 3.0 mi East 20.7 mph 27.6 mph 0.27 in Rain Heavy Rain
10:53 AM 73.0 °F 70.0 °F 90% 29.86 in 5.0 mi East 19.6 mph - 0.34 in Rain Heavy Rain
11:12 AM 73.4 °F 69.8 °F 88% 29.86 in 4.0 mi East 16.1 mph 28.8 mph 0.10 in Rain Heavy Rain
11:53 AM 73.0 °F 70.0 °F 90% 29.85 in 5.0 mi East 21.9 mph 26.5 mph 0.28 in Rain Rain
12:09 PM 73.4 °F 69.8 °F 88% 29.84 in 7.0 mi East 18.4 mph 25.3 mph 0.05 in Rain Rain
12:53 PM 75.0 °F 71.1 °F 87% 29.82 in 10.0 mi East 18.4 mph 27.6 mph 0.08 in Rain Light Rain
1:53 PM 75.0 °F 71.1 °F 87% 29.81 in 10.0 mi East 21.9 mph 28.8 mph 0.00 in Rain Light Rain
2:53 PM 73.9 °F 71.1 °F 91% 29.80 in 4.0 mi East 17.3 mph 31.1 mph 0.03 in Rain Rain
3:21 PM 73.4 °F 69.8 °F 88% 29.79 in 3.0 mi ENE 17.3 mph 27.6 mph 0.05 in Rain Heavy Rain
3:53 PM 73.9 °F 70.0 °F 87% 29.77 in 3.0 mi ENE 17.3 mph 24.2 mph 0.26 in Rain Heavy Rain
4:39 PM 73.4 °F 69.8 °F 88% 29.76 in 3.0 mi ENE 19.6 mph 35.7 mph 0.07 in   Overcast
4:53 PM 75.0 °F 70.0 °F 84% 29.76 in 10.0 mi East 27.6 mph 36.8 mph 0.07 in   Overcast
5:53 PM 75.0 °F 69.1 °F 82% 29.74 in 10.0 mi ENE 26.5 mph 35.7 mph 0.00 in   Overcast
6:53 PM 73.9 °F 69.1 °F 85% 29.73 in 10.0 mi ENE 23.0 mph 33.4 mph 0.00 in Rain Light Rain
7:39 PM 73.4 °F 69.8 °F 88% 29.74 in 3.0 mi ENE 16.1 mph 29.9 mph 0.21 in Rain Heavy Rain
7:53 PM 73.0 °F 70.0 °F 90% 29.73 in 4.0 mi ENE 16.1 mph 26.5 mph 0.21 in Rain Rain
8:13 PM 73.4 °F 69.8 °F 88% 29.72 in 1.8 mi ENE 18.4 mph 25.3 mph 0.03 in Rain Heavy Rain
8:17 PM 73.4 °F 69.8 °F 88% 29.72 in 2.0 mi ENE 16.1 mph 25.3 mph 0.05 in Rain Rain
8:19 PM 73.4 °F 69.8 °F 88% 29.72 in 3.0 mi ENE 20.7 mph 25.3 mph 0.05 in Rain Light Rain
8:28 PM 73.4 °F 69.8 °F 88% 29.72 in 4.0 mi ENE 20.7 mph 28.8 mph 0.05 in Rain Light Rain
8:35 PM 73.4 °F 69.8 °F 88% 29.72 in 5.0 mi ENE 20.7 mph 27.6 mph 0.06 in Rain Rain
8:39 PM 73.4 °F 69.8 °F 88% 29.72 in 6.0 mi ENE 18.4 mph 27.6 mph 0.06 in Rain Light Rain
8:53 PM 73.9 °F 70.0 °F 87% 29.72 in 10.0 mi ENE 19.6 mph 27.6 mph 0.06 in Rain Light Rain
9:00 PM 73.4 °F 69.8 °F 88% 29.72 in 10.0 mi ENE 18.4 mph 29.9 mph 0.00 in   Overcast
9:53 PM 75.0 °F 70.0 °F 84% 29.71 in 10.0 mi East 19.6 mph 29.9 mph 0.00 in Rain Light Rain
10:10 PM 73.4 °F 69.8 °F 88% 29.72 in 10.0 mi East 19.6 mph 28.8 mph 0.00 in   Overcast
10:53 PM 75.0 °F 70.0 °F 84% 29.73 in 10.0 mi East 20.7 mph 29.9 mph 0.00 in   Overcast
11:39 PM 73.4 °F 69.8 °F 88% 29.73 in 3.0 mi East 18.4 mph 25.3 mph 0.11 in Rain Heavy Rain
11:53 PM 73.9 °F 70.0 °F 87% 29.72 in 4.0 mi East 18.4 mph 27.6 mph 0.13 in Rain Light Rain